Tracking 27079 objects as of 24-Mar-2023
HD Live streaming from Space Station
objects crossing your sky now

STTW-T1

Track STTW-T1 now!
10-day predictions
STTW-T1 is classified as:


NORAD ID: 14670
Int'l Code: 1984-008A
Perigee: 486.1 km
Apogee: 6,305.9 km
Inclination: 36.1 °
Period: 160.1 minutes
Semi major axis: 9767 km
RCS: 3.9341 m2 (large)
Launch date: January 29, 1984
Source: People's Republic of China (PRC)
Launch site: Xichang Space Center, China (XSC)
Your satellite tracking list
Your tracking list is empty




NASA's NSSDC Master Catalog

Two Line Element Set (TLE):
1 14670U 84008A   23082.35135430  .00002248  00000-0  12337-2 0  9991
2 14670  36.1125  79.5083 2979298 357.4563   1.3433  8.99411410277398
Source of the keplerian elements: AFSPC